Total_Precipitation_Accumulation
0.63 0.61 0.59 0.56 0.53 0.56 0.56 0.52 0.46 0.47 0.54 0.58 0.44 0.35 0.26 0.28 0.35 0.44 0.57 0.41 0.16 0.06 0.03 0.03 0.03 0.04 0.06 0.12 0.16 0.19 0.22 0.23 0.26 0.31 0.37 0.39 0.41 0.46
0.70 0.70 0.66 0.60 0.54 0.51 0.46 0.46 0.43 0.41 0.44 0.45 0.33 0.25 0.22 0.21 0.25 0.29 0.37 0.23 0.08 0.03 0.02 0.02 0.02 0.03 0.03 0.05 0.08 0.11 0.13 0.19 0.20 0.20 0.22 0.25 0.29 0.34
0.75 0.66 0.55 0.47 0.44 0.35 0.33 0.36 0.37 0.35 0.34 0.36 0.30 0.24 0.24 0.27 0.25 0.21 0.19 0.13 0.12 0.06 0.04 0.03 0.04 0.05 0.05 0.04 0.06 0.07 0.11 0.17 0.23 0.20 0.18 0.20 0.23 0.28
0.80 0.63 0.48 0.39 0.32 0.27 0.28 0.26 0.26 0.24 0.22 0.24 0.22 0.18 0.18 0.20 0.21 0.22 0.19 0.18 0.22 0.16 0.09 0.06 0.06 0.08 0.06 0.05 0.07 0.07 0.12 0.16 0.24 0.26 0.25 0.23 0.25 0.29
0.72 0.58 0.41 0.30 0.26 0.24 0.24 0.22 0.15 0.12 0.19 0.22 0.22 0.20 0.17 0.15 0.13 0.18 0.23 0.34 0.40 0.28 0.16 0.11 0.08 0.10 0.10 0.07 0.10 0.17 0.29 0.30 0.31 0.34 0.35 0.35 0.33 0.36
0.54 0.41 0.29 0.23 0.20 0.18 0.16 0.13 0.08 0.08 0.12 0.15 0.16 0.14 0.13 0.10 0.10 0.15 0.22 0.37 0.47 0.38 0.30 0.23 0.16 0.12 0.12 0.10 0.09 0.19 0.31 0.38 0.44 0.46 0.49 0.51 0.51 0.50
0.34 0.21 0.16 0.14 0.13 0.10 0.08 0.06 0.04 0.04 0.03 0.03 0.02 0.03 0.04 0.04 0.04 0.09 0.18 0.35 0.46 0.50 0.51 0.45 0.36 0.32 0.31 0.29 0.21 0.19 0.21 0.28 0.39 0.52 0.65 0.76 0.82 0.80
0.17 0.10 0.07 0.07 0.06 0.05 0.04 0.02 0.01 0.01 0.01 0.02 0.01 0.00 0.01 0.01 0.04 0.11 0.20 0.36 0.53 0.62 0.71 0.77 0.66 0.64 0.65 0.64 0.47 0.26 0.16 0.21 0.31 0.40 0.63 0.86 1.10 1.19
0.05 0.04 0.02 0.02 0.02 0.02 0.01 0.00 0.00 0.00 0.00 0.01 0.01 0.01 0.00 0.00 0.03 0.10 0.22 0.49 0.76 0.88 0.91 1.06 0.93 0.81 0.77 0.70 0.57 0.38 0.24 0.19 0.26 0.36 0.44 0.63 0.90 1.20
0.01 0.01 0.00 0.00 0.00 0.00 0.00 0.00 0.00 0.00 0.00 0.00 0.01 0.00 0.00 0.01 0.02 0.05 0.12 0.28 0.51 0.61 0.73 1.00 1.06 1.04 0.94 0.70 0.57 0.48 0.37 0.29 0.29 0.37 0.38 0.40 0.50 0.71
0.01 0.00 0.00 0.00 0.00 0.00 0.00 0.00 0.00 0.00 0.00 0.00 0.00 0.00 0.00 0.00 0.01 0.03 0.05 0.08 0.15 0.18 0.25 0.55 0.80 0.93 1.07 0.99 0.72 0.61 0.49 0.36 0.33 0.37 0.37 0.38 0.40 0.43
0.00 0.00 0.00 0.00 0.00 0.00 0.00 0.01 0.00 0.00 0.00 0.00 0.00 0.00 0.00 0.00 0.00 0.02 0.07 0.09 0.11 0.13 0.10 0.17 0.30 0.48 0.67 0.76 0.71 0.69 0.69 0.58 0.40 0.36 0.39 0.42 0.47 0.45
0.00 0.00 0.00 0.00 0.00 0.00 0.00 0.00 0.00 0.00 0.00 0.00 0.00 0.00 0.00 0.00 0.00 0.00 0.04 0.10 0.11 0.11 0.12 0.14 0.16 0.18 0.27 0.41 0.52 0.52 0.60 0.71 0.68 0.53 0.43 0.44 0.52 0.60
0.00 0.00 0.00 0.00 0.00 0.00 0.00 0.00 0.00 0.00 0.00 0.00 0.00 0.00 0.00 0.00 0.00 0.00 0.02 0.03 0.08 0.09 0.10 0.14 0.20 0.20 0.18 0.20 0.26 0.29 0.35 0.46 0.61 0.79 0.83 0.80 0.68 0.66
0.00 0.00 0.00 0.00 0.00 0.00 0.00 0.00 0.00 0.00 0.00 0.00 0.00 0.00 0.00 0.00 0.00 0.00 0.01 0.02 0.02 0.02 0.02 0.04 0.13 0.21 0.20 0.18 0.17 0.18 0.21 0.34 0.51 0.70 0.78 0.85 0.93 0.93
0.00 0.00 0.00 0.00 0.00 0.00 0.00 0.00 0.00 0.00 0.00 0.00 0.00 0.00 0.00 0.00 0.00 0.00 0.00 0.00 0.01 0.01 0.01 0.01 0.03 0.11 0.19 0.19 0.18 0.20 0.24 0.36 0.48 0.66 0.81 0.87 0.90 0.97
0.00 0.00 0.00 0.00 0.00 0.00 0.00 0.00 0.00 0.00 0.00 0.00 0.00 0.00 0.00 0.00 0.00 0.00 0.00 0.00 0.00 0.00 0.00 0.00 0.01 0.05 0.08 0.08 0.14 0.17 0.20 0.25 0.31 0.42 0.59 0.74 0.87 0.96
0.00 0.00 0.00 0.00 0.00 0.00 0.00 0.00 0.00 0.00 0.00 0.00 0.00 0.00 0.00 0.00 0.00 0.00 0.00 0.00 0.00 0.00 0.00 0.00 0.01 0.02 0.04 0.05 0.03 0.05 0.09 0.14 0.19 0.26 0.36 0.43 0.50 0.62
0.00 0.00 0.00 0.00 0.00 0.00 0.00 0.00 0.00 0.00 0.00 0.00 0.00 0.00 0.00 0.00 0.00 0.00 0.00 0.00 0.00 0.00 0.00 0.00 0.00 0.01 0.02 0.04 0.05 0.02 0.01 0.04 0.09 0.17 0.26 0.29 0.33 0.41
0.00 0.00 0.00 0.00 0.00 0.00 0.00 0.00 0.00 0.00 0.00 0.00 0.00 0.00 0.00 0.00 0.00 0.00 0.00 0.00 0.00 0.00 0.00 0.00 0.00 0.00 0.01 0.03 0.06 0.06 0.03 0.01 0.03 0.07 0.11 0.15 0.19 0.20
0.00 0.00 0.00 0.00 0.00 0.00 0.00 0.00 0.00 0.00 0.00 0.00 0.00 0.00 0.00 0.00 0.00 0.00 0.00 0.00 0.00 0.00 0.00 0.00 0.00 0.00 0.00 0.01 0.03 0.06 0.07 0.03 0.02 0.03 0.06 0.09 0.12 0.16
0.00 0.00 0.00 0.00 0.00 0.00 0.00 0.00 0.00 0.00 0.00 0.00 0.00 0.00 0.00 0.00 0.00 0.00 0.00 0.00 0.00 0.00 0.00 0.00 0.00 0.00 0.00 0.01 0.01 0.03 0.06 0.07 0.06 0.03 0.03 0.05 0.08 0.08
0.00 0.00 0.00 0.00 0.00 0.00 0.00 0.00 0.00 0.00 0.00 0.00 0.00 0.00 0.00 0.00 0.00 0.00 0.00 0.00 0.00 0.00 0.00 0.00 0.00 0.00 0.00 0.01 0.02 0.04 0.05 0.07 0.11 0.13 0.12 0.06 0.03 0.02